Find Starlink 36428

NORAD ID: 67362 Int'l Des: 2026-003 Owner: SPXS Country: US Constellation: starlink operational
LEOCIRCULAR

实时位置

正在加载3D地球...

关于 Starlink 36428

正在加载描述...

即将过境

Passes for default location (London). Set your location on the main map for personalized predictions.

高度历史

Loading altitude history...

两行轨道根数

1 67362U 26003AE 26106.99643907 .00010268 00000-0 38199-3 0 9997
2 67362 43.0048 10.6172 0001332 259.1619 100.9083 15.27591699 14688
Epoch: Apr 16, 2026 • Age: 17 hours

当前状态

高度 483.8 km
速度 7.62 km/s
星下点 -6.90°S, 103.68°W
发射日期 Jan 9, 2026
运行时间 0.2 years
类型 internet

技术详情

分类 Payload
质量 575.00 kg
干质量 530.00 kg
总质量 575.00 kg
长度 0.30 m
直径 4.10 m
跨度 29.00 m
形状 Box + pan
制造商 SPXS
平台类型 Starlink V2MO
阶段状态 In Orbit
所有者/国家 SPXS/US

Most Searched